Wind_Speed
25 25 26 25 25 25 26 26 27 26 25 24 22 21 20 20 19 18 17 16 15 15 15 14 12 11 10 10 10 10 9 9 10 9 9 9 9 8 9 9 9 9 9 10
25 25 26 26 26 27 27 27 27 27 25 23 23 23 23 22 20 19 18 17 16 16 16 14 13 12 11 10 10 10 9 9 10 10 10 9 9 9 9 10 10 10 9 9
25 25 27 27 25 27 26 26 27 26 25 24 24 23 23 23 22 20 19 18 18 17 17 16 14 13 12 11 11 11 10 10 10 10 10 10 10 10 10 10 10 10 11 11
25 25 27 24 24 25 26 25 26 26 25 25 24 24 23 23 22 21 20 19 18 18 17 16 15 14 13 12 12 12 12 11 11 11 11 11 11 11 11 11 11 11 10 11
24 25 26 23 23 24 25 25 25 25 24 24 24 25 24 23 23 22 22 21 20 19 18 17 16 15 14 14 13 13 12 12 12 12 12 12 12 12 12 12 12 12 11 11
25 25 25 22 22 22 24 25 24 25 24 23 23 24 23 22 23 23 23 22 21 20 19 18 17 16 15 15 14 14 14 13 13 13 13 12 12 13 13 13 13 13 13 12
25 25 25 21 21 23 23 23 23 24 24 24 23 24 22 22 23 23 24 23 22 20 20 19 18 17 17 16 16 15 15 14 14 14 14 14 13 13 13 14 14 15 15 14
25 25 24 21 22 23 23 22 23 23 24 25 24 24 24 24 23 23 24 24 23 21 20 20 19 18 17 17 17 16 16 15 15 15 15 15 15 14 14 14 15 15 15 15
26 25 25 24 23 23 23 23 24 24 24 25 25 24 24 24 24 24 24 24 24 23 22 21 20 19 18 17 17 17 16 16 16 16 16 16 16 15 15 15 15 15 15 15
26 25 26 26 24 24 25 25 26 26 25 26 25 24 24 24 25 25 25 24 24 24 23 22 22 21 20 19 18 18 18 18 17 17 17 17 16 16 16 17 17 16 16 16
26 26 27 27 27 26 27 27 27 27 27 26 25 25 25 26 26 26 25 25 25 25 24 23 24 23 22 20 20 20 19 19 18 17 17 17 17 17 17 17 17 17 18 18
27 27 28 27 28 29 27 27 28 28 28 27 26 26 26 27 27 26 26 26 26 26 26 25 25 25 24 22 22 21 20 20 19 19 18 18 18 18 18 18 18 18 19 19
27 27 28 28 27 28 28 28 29 29 28 27 27 27 27 28 27 27 27 26 26 27 27 26 26 25 24 24 23 22 21 20 20 19 19 18 18 18 18 18 19 19 19 20
28 28 29 29 29 28 28 29 30 31 30 29 29 28 28 28 28 28 28 27 27 27 27 27 26 25 25 24 23 23 22 21 20 20 20 19 19 19 19 19 19 20 20 20
29 29 29 30 29 28 28 28 30 31 31 31 30 29 28 28 28 28 28 28 27 27 27 27 27 26 26 25 24 23 22 22 21 21 20 20 20 20 20 21 21 20 20 21
29 29 29 30 30 29 28 28 28 29 30 30 30 30 29 28 28 28 28 28 27 27 27 27 27 26 26 25 24 23 22 22 22 21 21 21 20 20 20 21 22 22 21 21
29 29 29 29 30 30 30 29 28 29 30 30 31 30 30 30 29 29 28 27 28 28 28 27 27 27 26 26 25 24 24 24 23 22 22 22 21 21 21 21 21 21 22 22
29 29 29 29 30 31 31 30 30 30 30 31 31 31 31 31 30 29 28 28 28 28 28 27 27 27 27 27 26 26 25 24 24 24 23 22 22 22 22 22 22 22 22 23
29 30 30 30 30 30 31 29 29 31 31 31 31 31 31 31 30 28 28 29 29 28 28 28 28 28 28 28 28 27 26 26 26 25 25 24 24 24 24 24 23 23 24 24
29 29 30 30 30 30 30 29 29 30 31 31 31 30 30 30 30 29 29 29 29 29 28 28 29 29 29 29 29 28 28 28 28 27 26 26 26 26 26 26 25 25 25 26
29 29 29 29 29 29 29 29 28 28 29 30 31 31 31 30 30 30 29 28 28 30 30 30 30 30 30 30 30 29 30 29 29 29 28 28 28 28 27 27 27 27 27 27
28 28 27 27 28 27 27 27 27 27 27 28 29 30 31 31 31 30 29 29 29 30 31 31 30 30 30 31 31 30 30 30 30 30 30 30 29 29 29 29 29 28 28 28
28 26 26 26 27 26 26 26 26 26 27 28 28 29 30 30 30 31 31 30 30 30 31 31 31 31 31 32 32 31 32 31 31 31 31 31 30 30 29 29 29 29 29 29
27 26 26 27 27 27 26 25 25 26 26 27 27 27 28 29 29 30 31 31 31 31 31 32 32 32 33 33 32 32 32 32 31 31 31 31 31 30 30 30 30 30 30 30
26 26 26 26 27 27 27 26 25 26 26 26 27 27 28 29 29 29 29 30 31 31 31 31 32 32 32 32 32 32 32 32 31 31 31 31 31 31 31 31 31 31 31 31
25 25 26 26 26 26 27 27 27 27 27 28 28 28 29 29 30 30 30 30 30 30 30 31 31 31 31 31 31 32 32 32 32 32 32 32 31 31 31 31 31 31 31 31
24 24 24 25 25 26 26 27 27 27 28 29 29 28 29 29 29 29 29 29 29 29 30 30 31 31 31 31 31 31 32 32 32 32 32 32 32 32 31 31 31 31 30 30
Wind_Direction
260 260 260 260 255 253 251 250 251 251 252 253 254 258 261 264 265 263 263 265 266 269 271 272 273 272 272 272 271 267 265 259 257 258 257 255 253 247 240 241 242 242 243 242
258 260 259 257 255 254 253 251 250 251 253 253 254 253 257 259 261 262 261 261 262 264 266 268 270 267 267 267 267 263 261 256 257 254 253 254 250 246 239 237 242 243 245 246
259 260 261 257 256 255 255 253 251 252 252 253 254 254 254 255 256 258 258 258 259 261 262 263 265 265 264 261 259 258 258 259 257 253 251 251 251 248 242 240 243 244 247 247
262 261 262 263 259 257 255 252 251 253 253 252 253 252 253 252 252 253 254 255 255 258 259 259 261 262 262 259 256 259 258 254 253 253 252 248 247 247 246 245 245 244 245 243
262 262 264 263 260 258 257 254 252 253 253 252 251 254 252 251 251 251 252 254 255 256 255 255 256 257 258 258 256 259 255 251 252 252 251 249 249 248 247 247 245 245 247 246
260 261 264 266 264 260 260 256 253 252 250 249 249 252 253 252 250 250 251 252 253 255 253 253 254 254 254 255 254 254 252 252 251 250 249 251 251 250 249 249 248 249 248 249
259 261 264 265 264 260 259 260 257 252 250 250 249 249 252 251 250 250 250 251 251 252 251 250 251 252 251 251 251 251 251 251 252 250 250 251 253 252 251 250 251 253 254 254
259 261 263 265 262 258 261 260 257 252 249 248 247 249 250 251 250 250 252 252 252 250 247 247 248 250 250 248 249 249 250 250 250 251 252 252 253 252 252 252 253 253 255 258
260 262 265 264 260 256 256 257 258 255 253 251 249 250 250 251 249 250 251 253 252 251 248 245 245 247 247 248 248 247 248 249 249 251 252 253 253 253 253 253 256 255 256 258
261 260 261 262 260 258 256 255 254 254 255 255 252 251 253 250 248 249 252 253 252 250 248 245 243 245 245 246 247 246 248 249 250 252 251 250 252 254 255 256 256 258 259 259
262 262 259 259 260 259 257 255 253 252 253 254 252 251 252 251 249 249 251 251 249 246 245 244 243 244 245 245 246 247 248 249 251 252 251 250 253 257 257 259 258 259 261 262
262 262 261 258 258 259 259 256 253 252 254 253 252 252 253 253 251 250 249 249 248 246 245 243 243 243 243 243 244 246 247 248 250 251 252 252 254 257 259 259 259 260 263 264
260 260 259 257 258 258 258 256 252 251 252 252 252 252 253 253 251 251 250 249 248 248 246 244 245 241 241 243 243 244 245 246 247 249 251 254 255 256 259 261 261 262 263 265
261 260 259 259 259 255 256 256 254 250 249 250 252 252 252 252 250 250 249 249 248 247 246 245 244 241 240 242 242 242 244 244 246 248 251 253 254 256 259 260 261 263 263 265
261 260 260 261 260 257 256 256 254 251 248 248 250 252 251 250 250 249 247 246 246 245 245 245 243 241 241 241 242 242 244 244 245 248 250 253 255 257 259 261 263 264 264 265
261 259 258 258 258 257 256 256 256 253 251 248 249 249 248 249 250 249 248 246 244 244 243 243 242 240 239 239 241 242 243 244 245 248 251 255 257 258 259 262 264 265 265 266
261 258 256 256 256 256 256 256 254 251 249 248 249 250 248 248 248 248 247 245 242 242 241 240 240 239 238 238 240 242 244 245 247 249 252 256 258 258 260 262 264 266 266 267
262 258 257 257 256 256 257 256 254 252 249 248 248 248 247 247 247 245 245 244 241 239 239 238 238 238 237 238 241 243 244 246 248 250 253 257 258 259 260 263 264 267 268 270
263 260 257 257 258 258 257 257 255 253 251 249 247 247 245 245 245 245 244 243 240 238 238 238 237 238 238 239 242 243 244 246 248 251 254 257 260 261 262 264 266 268 270 271
264 262 259 257 257 257 258 258 257 254 251 248 247 247 245 244 244 244 243 242 241 238 237 238 239 240 240 241 242 244 246 248 250 253 256 258 260 261 263 264 266 267 269 271
264 262 260 258 257 258 259 258 257 254 250 249 248 246 244 244 243 243 242 242 240 238 237 238 239 241 241 242 243 245 247 249 251 253 256 259 260 261 262 265 267 268 270 272
263 261 259 258 259 259 260 258 256 252 249 249 249 246 244 243 242 242 242 242 241 240 239 239 241 242 243 243 244 245 248 250 251 253 255 258 260 261 263 265 267 267 268 270
262 261 259 257 257 259 258 257 255 253 251 249 248 246 244 244 243 242 243 243 243 242 241 241 242 244 244 244 245 246 250 251 252 254 256 258 259 262 264 264 264 265 266 269
261 259 259 258 258 258 258 258 255 253 251 248 246 245 245 244 244 244 244 243 244 244 244 243 243 244 244 245 246 247 249 250 253 254 256 257 258 260 263 263 264 265 267 270
262 261 260 260 258 258 259 257 255 252 249 247 246 247 247 247 246 245 245 244 244 244 244 243 243 244 245 246 247 248 249 250 253 255 256 257 258 261 263 264 265 267 268 269
263 263 263 261 259 258 258 256 254 251 249 248 248 248 249 249 247 245 244 244 245 244 243 243 243 245 245 245 246 247 248 251 253 255 257 258 259 260 263 265 266 266 267 268
264 264 263 261 260 258 258 257 255 253 252 250 248 248 249 248 246 244 243 243 243 243 243 243 243 244 245 246 248 249 250 252 254 256 258 259 259 260 262 263 264 266 267 269
Height
5784 5784 5785 5786 5788 5789 5790 5792 5795 5798 5799 5802 5804 5804 5805 5806 5807 5808 5809 5810 5810 5811 5811 5811 5811 5812 5812 5812 5813 5813 5814 5815 5815 5816 5817 5817 5818 5819 5820 5822 5823 5824 5825 5827
5777 5778 5778 5779 5781 5782 5784 5786 5788 5790 5793 5796 5797 5798 5799 5800 5802 5803 5804 5805 5806 5807 5807 5808 5808 5808 5809 5809 5810 5811 5811 5812 5813 5814 5814 5815 5816 5817 5818 5819 5821 5822 5823 5824
5770 5771 5770 5772 5775 5775 5777 5779 5781 5783 5787 5788 5790 5792 5793 5794 5796 5798 5799 5800 5801 5802 5803 5804 5805 5805 5805 5806 5807 5808 5809 5809 5810 5811 5812 5813 5814 5815 5816 5817 5818 5819 5821 5822
5762 5764 5763 5768 5768 5768 5770 5772 5774 5776 5778 5781 5783 5784 5786 5788 5790 5792 5794 5795 5796 5797 5798 5799 5800 5801 5802 5803 5804 5805 5806 5807 5808 5809 5809 5810 5811 5812 5814 5815 5816 5817 5818 5820
5756 5756 5757 5761 5762 5762 5763 5765 5768 5769 5771 5774 5776 5777 5780 5781 5784 5786 5788 5790 5791 5792 5794 5795 5796 5797 5798 5799 5800 5801 5802 5804 5805 5806 5807 5808 5809 5810 5811 5812 5813 5814 5815 5817
5749 5749 5750 5755 5756 5755 5757 5758 5760 5761 5763 5766 5768 5771 5773 5775 5777 5780 5782 5784 5785 5787 5789 5790 5792 5793 5794 5795 5797 5798 5799 5800 5801 5803 5804 5805 5806 5807 5808 5809 5810 5811 5812 5814
5743 5743 5744 5748 5748 5749 5751 5753 5754 5755 5757 5759 5762 5765 5767 5769 5771 5773 5775 5778 5780 5782 5784 5785 5787 5788 5789 5791 5792 5794 5795 5797 5798 5799 5800 5801 5803 5804 5805 5806 5807 5808 5809 5810
5736 5737 5741 5741 5742 5743 5745 5746 5747 5748 5751 5753 5756 5758 5760 5762 5765 5767 5769 5771 5774 5776 5778 5780 5781 5783 5785 5786 5788 5789 5791 5792 5794 5795 5796 5798 5799 5800 5801 5802 5804 5805 5806 5806
5730 5733 5733 5733 5734 5736 5736 5738 5740 5742 5744 5746 5749 5752 5754 5757 5759 5761 5763 5765 5767 5770 5772 5774 5776 5778 5780 5781 5783 5785 5786 5788 5790 5791 5792 5794 5795 5796 5798 5799 5800 5801 5802 5803
5722 5724 5725 5726 5726 5728 5730 5731 5733 5735 5737 5739 5742 5745 5747 5750 5752 5754 5756 5758 5761 5763 5765 5768 5770 5772 5774 5776 5778 5780 5782 5783 5785 5786 5788 5789 5791 5792 5793 5795 5795 5796 5797 5799
5715 5717 5718 5719 5719 5721 5722 5724 5726 5728 5730 5732 5735 5737 5739 5742 5744 5747 5749 5751 5754 5756 5759 5761 5763 5766 5768 5771 5772 5774 5777 5778 5780 5781 5783 5785 5786 5788 5789 5790 5791 5792 5793 5794
5708 5709 5709 5711 5711 5712 5714 5716 5718 5721 5723 5725 5727 5729 5732 5734 5737 5739 5742 5744 5746 5749 5751 5754 5757 5759 5762 5765 5767 5769 5771 5773 5775 5776 5778 5780 5781 5783 5784 5785 5786 5787 5788 5789
5699 5700 5701 5702 5703 5704 5706 5708 5710 5712 5715 5717 5719 5721 5724 5726 5729 5731 5734 5737 5739 5741 5744 5747 5749 5752 5755 5758 5761 5763 5765 5767 5769 5771 5772 5774 5775 5777 5778 5779 5780 5781 5782 5783
5690 5691 5692 5693 5695 5696 5698 5700 5702 5704 5706 5709 5711 5713 5716 5718 5720 5723 5726 5729 5731 5734 5737 5739 5742 5745 5748 5751 5754 5757 5759 5761 5763 5765 5767 5769 5770 5771 5773 5774 5775 5775 5776 5777
5682 5682 5683 5685 5686 5688 5689 5691 5693 5696 5698 5700 5703 5705 5707 5709 5712 5715 5718 5720 5723 5726 5729 5732 5735 5739 5742 5744 5747 5750 5753 5755 5757 5759 5761 5763 5764 5766 5767 5768 5769 5770 5770 5771
5673 5673 5675 5676 5678 5680 5681 5682 5684 5687 5689 5691 5694 5696 5698 5701 5704 5706 5709 5712 5715 5718 5721 5725 5728 5731 5734 5738 5741 5743 5746 5749 5751 5753 5755 5757 5758 5759 5761 5762 5763 5763 5764 5765
5664 5665 5666 5668 5669 5671 5672 5674 5675 5677 5679 5682 5685 5688 5690 5692 5695 5698 5701 5703 5707 5710 5713 5717 5720 5724 5727 5730 5734 5737 5739 5742 5744 5747 5749 5750 5752 5753 5754 5755 5756 5757 5757 5758
5655 5656 5658 5659 5660 5662 5663 5665 5666 5668 5670 5673 5676 5678 5681 5683 5686 5689 5692 5695 5698 5702 5705 5709 5712 5716 5719 5723 5726 5730 5732 5735 5738 5740 5742 5743 5745 5746 5747 5748 5749 5749 5750 5750
5647 5648 5649 5651 5652 5653 5654 5656 5657 5659 5661 5664 5667 5669 5672 5674 5677 5680 5683 5687 5690 5694 5698 5701 5704 5708 5712 5716 5719 5722 5725 5728 5730 5732 5734 5736 5737 5739 5740 5741 5742 5742 5743 5743
5639 5640 5641 5642 5643 5645 5646 5647 5648 5650 5652 5655 5658 5661 5663 5666 5669 5672 5675 5678 5682 5686 5690 5693 5697 5700 5704 5708 5711 5714 5717 5720 5722 5724 5726 5728 5730 5731 5732 5733 5734 5734 5734 5735
5631 5631 5632 5633 5635 5636 5637 5638 5640 5642 5644 5646 5649 5652 5655 5658 5661 5664 5667 5671 5674 5678 5681 5685 5689 5692 5696 5699 5702 5705 5709 5711 5714 5716 5718 5720 5721 5722 5723 5724 5725 5726 5726 5726
5622 5623 5624 5625 5627 5628 5629 5630 5632 5634 5636 5639 5641 5644 5647 5650 5653 5656 5660 5663 5667 5670 5673 5677 5681 5684 5687 5690 5693 5697 5700 5702 5705 5707 5709 5711 5712 5713 5714 5715 5716 5717 5717 5718
5615 5616 5617 5618 5619 5621 5622 5623 5625 5627 5629 5632 5634 5637 5639 5643 5646 5649 5652 5656 5659 5662 5665 5669 5672 5676 5679 5682 5685 5688 5690 5693 5695 5697 5699 5701 5703 5704 5705 5706 5707 5707 5708 5709
5608 5609 5610 5611 5612 5614 5615 5617 5618 5620 5622 5625 5627 5630 5632 5635 5638 5641 5644 5647 5651 5654 5657 5660 5664 5667 5670 5672 5675 5678 5681 5683 5686 5688 5690 5692 5693 5694 5695 5696 5697 5698 5698 5699
5601 5602 5603 5604 5606 5607 5609 5610 5612 5614 5616 5618 5621 5623 5625 5628 5630 5633 5636 5639 5642 5645 5648 5651 5654 5657 5660 5663 5666 5669 5671 5674 5676 5678 5680 5682 5683 5684 5685 5686 5687 5688 5688 5689
5594 5595 5596 5597 5598 5600 5601 5603 5605 5607 5609 5611 5613 5616 5618 5620 5622 5625 5627 5630 5633 5636 5639 5642 5645 5648 5651 5654 5657 5659 5662 5664 5666 5668 5670 5672 5673 5674 5675 5676 5677 5677 5678 5678
5587 5588 5589 5590 5591 5592 5594 5595 5597 5599 5601 5603 5605 5607 5610 5612 5614 5617 5620 5622 5625 5628 5631 5634 5637 5639 5642 5645 5648 5650 5653 5655 5656 5658 5660 5661 5663 5664 5665 5666 5666 5667 5667 5668